SCISAT 1

Last updated on Sun Apr 12 2026 00:03:41 GMT+0000 (Coordinated Universal Time)

1 27858U 03036A 26101.50468245 .00000477 00000+0 65718-4 0 9994 2 27858 73.9290 303.8271 0006759 13.9989 346.1373 14.81372108221571
UTC large
Height (km)
Speed (km/s)
/
Latitude / Longitude
Inclination (degrees)
Orbital Period (minutes)
Azimuth
Elevation
Range (km)
Doppler Factor

Next 0 passes for location: London (51.5072 / 0.1276)

Sorry there are no passes over London.
SCISAT 1